This demonstration page uses our WeatherBlox Daily Observations layout. Learn more.

38.88101, -77.10428

Hourly Observations for March 18, 2015

Temp ( °F °C ) Dew Point ( °F °C ) Humidity (%) Winds ( mph kmh ) Pressure ( in mb ) Visibility ( mi km ) Precip ( " mm )
12:52 am 00:52 Clear 40 4.4 11 -11.7 30 30 NNW 23 37 30.13 1020 10 16.0934 0 0
1:52 am 01:52 Clear 39 3.9 12 -11.1 33 33 NNW 12 19 30.14 1021 10 16.0934 0 0
2:52 am 02:52 Mostly Clear 38 3.3 12 -11.1 34 34 NNW 6 9 30.14 1021 10 16.0934 0 0
3:52 am 03:52 Mostly Clear 37 2.8 13 -10.6 37 37 NNW 9 15 30.13 1020 10 16.0934 0 0
4:52 am 04:52 Mostly Clear 36 2.2 13 -10.6 39 39 NNW 9 15 30.14 1021 10 16.0934 0 0
5:52 am 05:52 Mostly Clear 37 2.8 13 -10.6 37 37 NW 9 15 30.15 1021 10 16.0934 0 0
6:52 am 06:52 Mostly Cloudy 37 2.8 13 -10.6 37 37 NNW 9 15 30.16 1021 10 16.0934 0 0
7:52 am 07:52 Mostly Cloudy 38 3.3 11 -11.7 33 33 NW 15 24 30.2 1023 10 16.0934 0 0
8:52 am 08:52 Mostly Cloudy 38 3.3 13 -10.6 36 36 N 13 20 30.21 1023 10 16.0934 0 0
9:52 am 09:52 Mostly Cloudy 39 3.9 9 -12.8 29 29 WNW 10 17 30.23 1024 10 16.0934 0 0
10:52 am 10:52 Mostly Cloudy 42 5.6 10 -12.2 27 27 WNW 18 30 30.24 1024 10 16.0934 0 0
11:52 am 11:52 Cloudy 45 7.2 10 -12.2 24 24 NNW 21 33 30.22 1023 10 16.0934 0 0
12:52 pm 12:52 Cloudy 46 7.8 10 -12.2 23 23 NNW 18 30 30.21 1023 10 16.0934 0 0
1:52 pm 13:52 Cloudy 49 9.4 10 -12.2 21 21 WNW 8 13 30.18 1022 10 16.0934 0 0
2:52 pm 14:52 Partly Cloudy 51 10.6 11 -11.7 20 20 W 16 26 30.14 1021 10 16.0934 0 0
3:52 pm 15:52 Mostly Cloudy 51 10.6 11 -11.7 20 20 NW 18 30 30.12 1020 10 16.0934 0 0
4:52 pm 16:52 Partly Cloudy 52 11.1 9 -12.8 17 17 WNW 14 22 30.12 1020 10 16.0934 0 0
5:52 pm 17:52 Mostly Cloudy 52 11.1 11 -11.7 19 19 NW 16 26 30.12 1020 10 16.0934 0 0
6:52 pm 18:52 Mostly Cloudy 50 10 9 -12.8 19 19 NW 13 20 30.13 1020 10 16.0934 0 0
7:52 pm 19:52 Partly Cloudy 49 9.4 9 -12.8 20 20 WNW 7 11 30.15 1021 10 16.0934 0 0
8:52 pm 20:52 Mostly Clear 47 8.3 11 -11.7 23 23 W 5 7 30.17 1022 10 16.0934 0 0
9:52 pm 21:52 Partly Cloudy 47 8.3 12 -11.1 24 24 Calm 30.2 1023 10 16.0934 0 0
10:52 pm 22:52 Mostly Clear 47 8.3 11 -11.7 23 23 W 5 7 30.21 1023 10 16.0934 0 0
11:52 pm 23:52 Mostly Clear 45 7.2 14 -10 29 29 Calm 30.22 1023 10 16.0934 0 0

Powered by AerisWeather